Погода в Хуахине

Таиланд     12°33′19″N   99°57′10″E
темп.,
°C
ветер,
м/с
пор.,
м/с
влажн.,
%
обл.,
%
осадки,
мм/ч
давл.,
гПа
погр.,
м
3 августа, вт
вт301:00+28зюз61271100 0.0 10081088
04:00+28зюз61071100 0.0 1007975
07:00+28юз61069100 0.0 10071056
10:00+29зюз71267100 0.0 10081146
13:00+29з51166100 0.0 10081150
16:00+29з61167100 0.0 10061103
19:00+29з5970100 0.0 1007932
22:00+28юз5773100 0.0 1009605
4 августа, ср
ср401:00+27зюз5874100 0.0 1008670
04:00+27юз5976100 0.0 1007627
07:00+28зюз61172100 0.0 1008856
10:00+28зюз71170100 0.0 1009818
13:00+27зюз51078100 0.2 1008755
16:00+26зюз61285100 0.8 1007632
19:00+26юз61181100 1.1 1008519
22:00+27зюз61276100 0.0 1010731
5 августа, чт
чт501:00+26зюз81578100 0.1 1008797
04:00+26зюз71280100 0.1 1007767
07:00+27зюз51079100 0.2 1008653
10:00+27зюз71275100 0.0 1008785
13:00+28зюз71274100 0.0 1007899
16:00+28зюз71174100 0.0 1005961
19:00+27зюз71272100 0.1 1007919
22:00+27зюз71372100 0.0 1008923
6 августа, пт
пт601:00+27зюз71376100 0.0 1007920
04:00+26юз51083100 0.3 1006610
07:00+26юз5981100 0.4 1007592
10:00+28юз61076100 0.0 1008838
13:00+28зюз61073100 0.0 1007984
16:00+28зюз61172100 0.0 1005943
19:00+28зюз71173100 0.0 1006972
22:00+27юз61276100 0.0 1008926
7 августа, сб
сб701:00+27зюз61175100 0.0 1007955
04:00+27юз5975100 0.0 1007754
07:00+27юз5976100 0.0 1008752
10:00+29юз5770100 0.0 10091044
13:00+31зюз7965100 1.1 1008922
16:00+29зюз696989 0.2 10061021
19:00+28зюз6974100 0.2 1007905
22:00+28зюз6107690 0.0 1009848